STARLINK-32624, 61926

Orbit data source: Space-Track

STARLINK-32624, 61926 is a payload satellite owned by SpaceX/Seattle (US) in LEO that was launched on Mon, 11 Nov 2024 UTC via an FALCON 9 launch vehicle from the Air Force Eastern Test Range (AFETR). Payload-class satellites include a variety of spacecraft equipped with specific instruments for various scientific and technological missions. These include communications satellites like Starlink; space stations such as the ISS; scientific satellites like the Hubble; Earth observation satellites from companies like Planet Labs, Umbra, and HawkEye 360; GPS; miniature CubeSats for education and research; and military/defense satellites.

Loading next visibility...
Identifier
61926, 2024-207Q
Orbit
LEO
Country
Flag of USUS
Related business
Manufacturer
SpaceX/Seattle
Mission
Operational Commercial Communications
Bus & Motor
STARLINK V2M, Unknown motor
Mass
730 kg wet, ~700 kg dry
Launch date (UTC)
2024-11-11 (2 years ago)
Launch vehicle
FALCON 9
Launch site
Air Force Eastern Test Range (AFETR)
Object type
Payload
Rocket body
Debris
Shape & HBR
Box + 2 Pan, 17.7 m
Radar Cross Section
33.884 m², Large (>1 m²)

Expand to show TLE details & history
Last TLE update: 1 day ago

TLE from 1 day ago
0 STARLINK-32624
1 61926U 24207Q   26144.90346294  .00022682  00000-0  83031-3 0  9991
2 61926  43.0006 210.8444 0001800 274.7748  85.2898 15.27615822 86384
Epoch: 2026-05-24T21:40Z
TLE epoch observation values (Epoch: 2026-05-24T21:40:59.198Z)
Latitude
-0°
Longitude
3.09881°
Altitude
482.616 km
Speed
7.626 km/s
True Right ascension
14h 03m 22s
True Declination
0° 00' 00"
Sunlit
Object was in full shadow at epoch
Visualization orbit readout
Latitude
Unknown
Longitude
Unknown
Altitude
Unknown
Speed
Unknown
Apparent Right ascension
Unknown
Apparent Declination
Unknown
Sunlit
N/A
Visualization observer readout
Local Sidereal Time
09:08:58
Azimuth
Unknown
Elevation
Unknown
Doppler factor
Unknown
Orbital elements
Apogee altitude
486.122 km
Perigee altitude
483.652 km
Semi-major axis
6,863.024 km
Eccentricity
0.00018
Inclination
43.0006°
RAAN
210.8444°
Arg. of periapsis
274.7748°
True anomaly
85.31036°
Mean anomaly
85.2898°
Eccentric anomaly
85.30008°
Mean motion
3.81742 °/min
Orbital period
94.3 mins
BSTAR
0.00083031
Loading maneuver chart data...
Computing Atmospheric mass density...
Loading historical data...
Loading historical data...
Loading historical data...
Loading historical data...
Loading historical data...
Loading historical data...
Loading historical data...

Documentation

Showing up to 5 results
|